Meacham, OR

3:30 AM PST on February 20, 2017 (GMT -0800)
Meacham

Weather History for KMEH - May, 2013

Change the Weather History Date:

Friday, May 10, 2013

  Actual Average Record
Temperature  
Mean Temperature 58 °F -  
Max Temperature 82 °F 55 °F 82 °F (2013)
Min Temperature 36 °F 30 °F 19 °F (1999)
Degree Days  
Heating Degree Days 6    
Growing Degree Days 8 (Base 50)    
Moisture  
Dew Point 39 °F    
Average Humidity 53    
Maximum Humidity 93    
Minimum Humidity 17    
Precipitation  
Precipitation 0.00 in - - ()
Sea Level Pressure  
Sea Level Pressure 30.18 in    
Wind  
Wind Speed 1 mph (North)    
Max Wind Speed 6 mph    
Max Gust Speed -    
Visibility 9 miles    
Events      
Averages and records for this station are not official NWS values.
T = Trace of Precipitation, MM = Missing Value Source: NWS Daily Summary

Daily Weather History Graph

Daily Weather History Graph

Search for Another Location

Airport or City:

Trip Planner

Search our weather history database for the weather conditions in past years. The results will help you decide how hot, cold, wet, or windy it might be!

Date:

Astronomy

May. 10, 2013 Rise Set
Actual Time 5:28 AM PDT 8:12 PM PDT
Civil Twilight 4:54 AM PDT 8:46 PM PDT
Nautical Twilight 4:11 AM PDT 9:29 PM PDT
Astronomical Twilight 3:21 AM PDT 10:19 PM PDT
Moon 5:55 AM PDT (5/10) 9:07 PM PDT (5/10)
Length of Visible Light 15h 51m
Length of Day
14h 43m
New Moon, 1% of the Moon is Illuminated
May 10
New Moon
May 17
First Quarter
May 24
Full
May 31
Last Quarter
Jun 8
New

Hourly Weather History & Observations

Time (PDT) Temp. Dew Point Humidity Pressure Visibility Wind Dir Wind Speed Gust Speed Precip Events Conditions
12:56 AM 43.0 °F 39.0 °F 86% 30.17 in 10.0 mi Calm Calm - N/A   Clear
1:56 AM 41.0 °F 37.9 °F 89% 30.17 in 8.0 mi Calm Calm - N/A   Clear
2:56 AM 39.0 °F 37.0 °F 93% 30.19 in 8.0 mi Calm Calm - N/A   Clear
3:56 AM 37.9 °F 36.0 °F 93% 30.20 in 9.0 mi Calm Calm - N/A   Clear
4:56 AM 37.0 °F 35.1 °F 93% 30.20 in 6.0 mi Calm Calm - N/A   Clear
5:56 AM 36.0 °F 34.0 °F 93% 30.22 in 4.0 mi Calm Calm - N/A   Clear
6:56 AM 43.0 °F 37.9 °F 82% 30.21 in 7.0 mi Calm Calm - N/A   Clear
7:56 AM 57.0 °F 44.1 °F 62% 30.20 in 10.0 mi Calm Calm - N/A   Clear
8:56 AM 66.9 °F 46.0 °F 47% 30.20 in 10.0 mi Calm Calm - N/A   Clear
9:56 AM 75.9 °F 41.0 °F 29% 30.18 in 10.0 mi Calm Calm - N/A   Clear
10:56 AM 79.0 °F 35.1 °F 20% 30.19 in 10.0 mi Variable 4.6 mph - N/A   Clear
11:56 AM 80.1 °F 32.0 °F 17% 30.19 in 10.0 mi Variable 3.5 mph - N/A   Clear
12:56 PM 80.1 °F 32.0 °F 17% 30.19 in 10.0 mi Calm Calm - N/A   Clear
1:56 PM 80.1 °F 41.0 °F 25% 30.18 in 10.0 mi Calm Calm - N/A   Partly Cloudy
2:56 PM 81.0 °F 39.9 °F 23% 30.18 in 10.0 mi Variable 5.8 mph - N/A   Clear
3:56 PM 81.0 °F 37.9 °F 21% 30.17 in 10.0 mi Variable 3.5 mph - N/A   Clear
4:56 PM 81.0 °F 35.1 °F 19% 30.17 in 10.0 mi Variable 3.5 mph - N/A   Clear
5:56 PM 79.0 °F 36.0 °F 21% 30.16 in 10.0 mi Variable 4.6 mph - N/A   Clear
6:56 PM 75.0 °F 39.0 °F 27% 30.16 in 10.0 mi Calm Calm - N/A   Clear
7:56 PM 66.0 °F 43.0 °F 43% 30.16 in 10.0 mi Calm Calm - N/A   Clear
8:56 PM 60.1 °F 46.0 °F 60% 30.16 in 10.0 mi Calm Calm - N/A   Clear
9:56 PM 55.9 °F 46.0 °F 69% 30.17 in 10.0 mi Calm Calm - N/A   Clear
10:56 PM 53.1 °F 46.0 °F 77% 30.17 in 10.0 mi Calm Calm - N/A   Scattered Clouds
11:56 PM 52.0 °F 45.0 °F 77% 30.18 in 10.0 mi Calm Calm - N/A   Mostly Cloudy